San Luis Valley Regional Bergman Field
KALS : now visible

Airfield :











YOU CAN JOIN US ON...

 
LOGIN :

Register | Disclaimer

   EN    FR    IT 

 









Legend :    VFR   Marginal VFR   IFR   Intensive IFR   Very Intensive IFR
Visi :
Ceiling :
>= 8 km
>= 3000ft
5 to 8 km
1000 to 3000 ft
1500m to 5 km
500 to 1000 ft
800 to 1500m
200 to 500 ft
< 800m
< 200 ft
Symbols :   Thunderstorms  Fog  Heavy snow  Heavy precipitations  Wind > 20 kt






- Airport Elevation : 7539 ft


KALS - San Luis Valley Regional Bergman Field

CURRENT METAR :
  • 161852Z AUTO 00000KT 10SM CLR 26/M04 A3014 RMK AO2 SLP119 T02611044

EXPIRED METARs :
  • 161752Z AUTO VRB03KT 10SM CLR 24/M04 A3017 RMK AO2 SLP131 T02391039 10239 20011 58014
  • 161652Z AUTO 00000KT 10SM CLR 21/M02 A3020 RMK AO2 SLP137 T02061022

TAF KALS
Valid from the 16 at 18:00 until the 17 at 18:00 UTC


161724Z 1618/1718 22008KT P6SM SKC
FM162100 28012G22KT P6SM FEW100
FM170200 31008KT P6SM SKC
FM170400 14006KT P6SM SKC
KZDV FIR / North America



MET'MAP, your aeronautical weather chart ! - Copyright ORBIFLY December 2007 - Disclaimer

ORBIFLY MET'MAP TEAM :

Programming & Development : Alexandra Zaïnal
Concept & original design : Baudouin d'Aumeries
Assistance for programming : Marc-Olivier Méhu
Technical & hardware support : Manuel Goepfert

Contact : metmap@orbifly.com




SOURCES & CREDITS :

   NOAA       Earth
Advisory